Miscellaneous Local Product
Issued by NWS Hastings, NE

Home | Current Version | Previous Version | Graphics & Text | Print | Product List | Glossary On
Versions: 1 2 3 4 5 6 7 8 9 10 11 12 13 14 15 16 17 18 19 20 21 22 23 24 25 26 27 28 29 30 31 32 33 34 35 36 37 38 39 40 41 42 43 44 45 46 47 48 49 50
000
AXUS43 KGID 260102
MISGRI

GID CWA HOURLY WEATHER ROUNDUP
NATIONAL WEATHER SERVICE HASTINGS NE
800 PM CDT FRI JUL 25 2014

NOTE: "FAIR" INDICATES FEW OR NO CLOUDS BELOW 12,000 FEET WITH NO
SIGNIFICANT WEATHER AND/OR OBSTRUCTIONS TO VISIBILITY.

...SOUTH CENTRAL NEBRASKA...

CITY           SKY/WX    TMP DP  RH WIND       PRES   REMARKS
GRAND ISLAND   PTCLDY    89  74  60 W6        29.81R HX  98
HASTINGS       PTCLDY    88  70  55 NW5       29.81R HX  93
KEARNEY        PTCLDY    88  70  55 NW7       29.83S HX  92
ORD            PTCLDY    85  73  67 SW3       29.80S HX  91
YORK           CLEAR     86  79  79 N3        29.78S HX  99
AURORA         PTCLDY    87  77  72 CALM      29.79R HX  99
LEXINGTON      CLEAR     87  72  60 CALM      29.84F HX  93
HOLDREGE       CLEAR     84  72  67 CALM      29.83S
HEBRON         CLEAR     89  72  56 CALM      29.76R HX  96

...NEBRASKA PANHANDLE...

CITY           SKY/WX    TMP DP  RH WIND       PRES   REMARKS
CHADRON        PTSUNNY   85  54  34 SE13      29.85F
ALLIANCE       TSTM      79  57  46 NW7       30.01R
SCOTTSBLUFF    CLOUDY    75  66  73 E13       29.94F
SIDNEY         CLOUDY    89  49  25 S16       29.96F

...WESTERN AND NORTH CENTRAL NEBRASKA...

CITY           SKY/WX    TMP DP  RH WIND       PRES   REMARKS
VALENTINE      SUNNY     87  59  38 NE5       29.84S
AINSWORTH      MOSUNNY   87  66  49 SE5       29.85R
ONEILL         CLEAR     89  66  46 CALM      29.80S HX  92
BROKEN BOW     MOSUNNY   86  72  62 SE6       29.84F HX  92
IMPERIAL       CLOUDY    86  66  51 CALM      29.89F
NORTH PLATTE   MOSUNNY   83  71  67 E6        29.85S
MCCOOK         PTSUNNY   87  68  52 E6        29.85S HX  90

...EASTERN NEBRASKA...

CITY           SKY/WX    TMP DP  RH WIND       PRES   REMARKS
NORFOLK        PTCLDY    86  73  65 E5        29.77R HX  93
SO SIOUX CITY  CLEAR     83  73  72 E7        29.75S
COLUMBUS       PTCLDY    84  73  70 NW6       29.77R HX  91
ALBION         PTCLDY    85  73  65 CALM      29.80R HX  92
OMAHA EPPLEY   MOCLDY    89  78  70 E8        29.72S HX 103
OFFUTT AFB     PTCLDY    89  83  81 CALM      29.72S HX 112
MILLARD        PTCLDY    88  74  62 NW3       29.72S HX  97
LINCOLN        CLEAR     92  74  55 N8        29.74S HX 101
NEBRASKA CITY  PTCLDY    88  75  63 N6        29.73R HX  98
BEATRICE       CLEAR     88  79  73 N5        29.74R HX 103
FALLS CITY     CLEAR     95  71  45 SW9       29.71S HX 102

...NORTHERN KANSAS...

CITY           SKY/WX    TMP DP  RH WIND       PRES   REMARKS
GOODLAND       PTSUNNY   90  59  35 E10       29.93S
HILL CITY      CLEAR     95  68  41 NE9       29.82R HX  99
NORTON         CLEAR     88  64  45 NE5       29.83S
PHILLIPSBURG   CLEAR     93  64  38 N8        29.79S HX  95
SMITH CENTER   CLEAR     91  70  49 N7        29.79R HX  97
HAYS           CLEAR     93  70  46 N5        29.79R HX  99
RUSSELL        CLEAR     97  66  36 W5        29.74S HX 100
CONCORDIA      CLEAR     95  71  45 VRB3      29.74R HX 102
SALINA         PTCLDY   101  64  29 S17G25    29.73S HX 104
TOPEKA         PTCLDY    95  71  45 S17G25    29.75S HX 102



USA.gov is the U.S. government's official web portal to all federal, state and local government web resources and services.